MOLNIYA 1-40

Last updated on Jan. 26, 2021, 8:12 a.m. UTC

1 10925U 78055A   21025.32354500  .00000656  00000-0  00000-0 0  9991
2 10925  62.5917 118.4407 7111194 278.7965  13.3083  2.00526459312492
UTC
Height (km)
Latitude
Longitude
Inclination
Orbital Period
UTC large
Height (km)
Speed (km/s)
/
Latitude / Longitude
Inclination (degrees)
Orbital Period (minutes)
Azimuth
Elevation
Range (km)
Doppler Factor
iOS Compass Heading
iOS Angle

Next 30 passes for location: Hong Kong

Rise time Rise Azimuth (degrees) Set time Set Azimuth (degrees) Duration Max altitude (degrees)

No matching passes for this satellites